Погода в Анапе

Поиск расширенной информации на нашем сайте:

Полезная информация:

Новости сайта



02.01.2020
Опубликован Долгосрочный прогноз погоды по городам России и ближнего зарубежья на январь 2020 года.
Карты: Прогноз на январь и февраль 2020 года, Сравнение прогнозируемой аномалии приземной температуры воздуха на январь 2020 года по разным моделям.




Погода в Анапе - сегодня

Время (UTC), дата Ветер
(°,м/с) 
Видим.   Явления Облачность Т
(°С)
Тd
(°С)
f(%) Тe
(°С)
Pmin
(гПа)
dP
(гПа)
Po
(мм)
O2
(г/м3)
Тmin Tmax R s Состояние
почвы
15 18.10.20 230 (ЮЗ) 8-10{10}  10 км    10/10 600 м кучево-дожд. 
[Cb cap]
+21.1 +16.6 75 +32  1015.4  0.9  759  280    +23.1       
18 18.10.20 220 (ЮЗ) 7-10{11}  10 км    10/10 300 м кучево-дожд. 
[Cb cap]
+20.7 +17.1 80 +33  1015.7  0.3  759  281           
21 18.10.20 290 (З) 2{10}  10 км    10/10 300 м кучево-дожд. 
[Cb cap]
+20.5 +15 71 +29  1015.5  -0.2  759  281           
00 19.10.20 060 (СВ) 10 км    8/8 600 м кучево-дожд. 
[Cb cap]
+17.7 +15.5 87 +28  1016.2  0.6  759  284           
03 19.10.20 060 (СВ) 4000 м  в посл. час ливневой дождь  10/10 600 м кучево-дожд. 
[Cb cap]
+16.4 +15.3 93 +26  1016.2  759  285  +16.4    0.3    влажная 
06 19.10.20 040 (СВ) 10 км    10/10 600 м кучево-дожд. 
[Cb cap]
+17.1 +15.3 89 +27  1016.5  0.3  760  285  +16.1         
09 19.10.20 тихо ()   10 км  {ливн. осадки}  10/10 300 м кучево-дожд. 
[Cb cap]
+17.6 +15.1 85 +26  1017.1  0.6  760  285           
12 19.10.20 270 (З) 20000 м  {ливн. осадки}  9/6 300 м кучево-дожд., средняя 
[Cb cap|Ac As]
+17.9 +11.5 66 +22  1017.5  0.3  760  285           
15 19.10.20 300 (СЗ) 4-11{11}  10 км    6/6 300 м кучево-дожд. 
[Cb cap]
+15.8 +11.4 75 +19  1019.4  1.9  762  288    +18.9     
18 19.10.20 050 (СВ) 2{13}  10 км    8/8 300 м кучево-дожд. 
[Cb cap]
+12.3 +9 80 +13  1022.4  2.9  764  293           
21 19.10.20 010 (С) 10 км    3/3 600 м 
[Sc]
+14 +8.8 71 +14  1024  1.7  765  292           
00 20.10.20 030 (СВ) 10 км    ясно 
+11.5 +7 74 +12  1025  0.9  766  295           
03 20.10.20 050 (СВ) 10 км    3/3 600 м 
[Sc]
+10.7 +7.6 81 +11  1025.3  0.3  766  296  +10.5        влажная 
06 20.10.20 050 (СВ) 20000 м    8/4 600 м верхняя 
[Sc|Ci fib]
+13.8 +6.7 62 +14  1026.2  0.9  767  293  +10.1         
09 20.10.20 350 (С) 20000 м    9/6 600 м средняя, верхняя 
[Sc|Ac trans|Ci fib]
+15.9 +5.8 51 +17  1026.2  767  291           
12 20.10.20 020 (С) 20000 м    9/5 600 м средняя, верхняя 
[Sc|Ac trans|Ci fib]
+15.4 +5.5 52 +16  1026  -0.2  767  292           
15 20.10.20 010 (С) 10 км    4/4 600 м 
[Sc]
+13.4 +5.9 60 +13  1026.7  0.6  767  294    +16.1       
18 20.10.20 010 (С) 10 км    3/3 600 м 
[Sc]
+12.7 +4.5 57 +13  1027.6  0.9  768  295           
21 20.10.20 040 (СВ) 10 км    6/1 600 м средняя 
[Sc|Ac trans]
+10.4 +4.7 68 +11  1028.2  0.6  768  298           
00 21.10.20 040 (СВ) 10 км    ясно 
+9.5 +4.9 73 +10  1028.6  0.4  769  299           
03 21.10.20 050 (СВ) 10 км    8/0 средняя 
[Ac trans]
+9.1 +4.3 72 +9  1029.1  0.5  769  299  +8.8         
06 21.10.20 070 (В) 20000 м    3/0 средняя 
[Ac trans]
+10.8 +4 63 +10  1029.7  0.6  769  298  +8.4         
09 21.10.20 030 (СВ) 20000 м    ясно 
+14.7 +3.6 47 +15  1029.4  -0.3  769  294           
12 21.10.20 030 (СВ) 20000 м    1/0 верхняя 
[Ci fib]
+16.2 +3.3 42 +17  1027.2  -2.1  768  292           
15 21.10.20 050 (СВ) 10 км    5/0 верхняя 
[Ci fib]
+13.4 +2.8 49 +13  1026.3  -0.9  767  294    +16.5       
Время (UTC), дата Ветер
(°,м/с) 
Видим.   Явления Облачность Т
(°С)
Тd
(°С)
f(%) Тe
(°С)
Pmin
(гПа)
dP
(гПа)
Po
(мм)
O2
(г/м3)
Тmin Tmax R s Состояние
почвы

Для получения пояснительной информации подведите курсор к названию столбца.

ПОГОДА в Анапе - архив

Всё, что Вы хотите узнать о погоде в Анапе - удобно и подробно!

Выберите нужную дату (начиная с 1 января 2019* года) и нажмите кнопку "Найти".
Будут отображены архивные сводки погоды по пункту Анапа, начиная с указанной даты.


Отображать данные в формате CSV (для использования в таблицах Excel)


Внимание! Наш архив погоды предназначен исключительно для личного некоммерческого использования в познавательных целях. Если Вам необходимы официальные справки о состоянии погоды (для производственных, юридических, коммерческих и т.п. целей), обращайтесь в органы Росгидромета.

*Примечание: данная дата относится к архиву по метеостанциям СССР (Россия, СНГ, Балтия).
Архив по метеостанциям Зарубежной Европы и Азии (кроме Китая) хранится 10 дней, по другим регионам земного шара (Китай, Африка, Америка, Австралия, Океания) - 1 день.

Анапа - район местоположения метеостанции


Название, широта, долгота, высота метеостанции:
Анапа (обсерватория) 44.97°ш. 37.30°д. 23 м над ур. моря [Российская Федерация]

Дополнительная информация

В oтличие oт бoльшинства пoгoдных сайтoв мы публикуем пoдрoбную метеoинфoрмацию в детальнoм прoфессиoнальнoм фoрмате.

Характеристики температуры и влажнoсти вoздуха измеряются на высoте 2 м в тени вдали oт зданий и деревьев.
Скoрoсть ветра измеряется на высoте 10 м (на урoвне рoста челoвека скoрoсть ветра ниже в 1.5-2 раза). Если метеoстанция нахoдится в гoрoде или в лесу, тo скoрoсть ветра занижена на 2-4 м/с пo сравнению с oткрытым местoм. Скoрoсть ветра над акватoриями крупных рек и oзёр, а также на вершинах хoлмoв на 2-5 м/с выше, чем в oбычных услoвиях.
Атмoсфернoе давление в разных тoчках местнoсти мoжет значительнo oтличаться oт давления на метеoстанции, в зависимoсти oт услoвий рельефа (при пoдъёме на 10 м давление пoнижается примернo на 1 мм рт.ст.).